EW7651 Weather Reports


time (UTC)temp
C
wind
direction
speed
KPH
gust
KPH
rain 1hr
cm
rain 24hr
cm
rain mn
cm
humidity
%
barometer
mb
20260506043034 10 153 0.0 0.0 0.00 0.00 0.00 1 1006.7
20260506041528 10 196 0.0 1.6 0.00 0.00 0.00 1 1006.6
20260506040039 10 255 0.0 0.0 0.00 0.00 0.00 1 1006.6
20260506033016 10 196 0.0 0.0 0.00 0.00 0.00 1 1006.8
20260506031512 10 142 0.0 0.0 0.00 0.00 0.00 1 1006.8
20260506030008 10 224 0.0 0.0 0.00 0.00 0.00 1 1006.9
20260506023003 10 240 0.0 0.0 0.00 0.00 0.00 1 1007.1
20260506021605 10 231 0.0 0.0 0.00 0.00 0.00 1 1007.2
20260506020054 10 267 0.0 0.0 0.00 0.00 0.00 1 1007.2
20260506013046 10 216 0.0 0.0 0.00 0.00 0.00 1 1007.2
20260506011546 9 202 0.0 0.0 0.00 0.00 0.00 1 1007.3
20260506010046 9 196 0.0 0.0 0.00 0.00 0.00 1 1007.3
20260506003030 9 32 0.0 0.0 0.00 0.00 0.00 1 1007.7
20260506001526 9 196 0.0 0.0 0.00 0.00 0.00 1 1007.8
20260506000022 9 277 0.0 1.6 0.00 0.00 0.00 1 1007.8
20260505233015 9 281 0.0 0.0 0.00 0.00 0.00 1 1008.0
20260505231518 10 196 0.0 0.0 0.00 0.00 0.00 1 1008.0
20260505230007 10 197 0.0 0.0 0.00 0.00 0.00 1 1008.1
20260505223113 10 217 0.0 1.6 0.00 0.00 0.00 1 1008.2
20260505221600 10 328 0.0 0.0 0.00 0.00 0.00 1 1008.2
20260505220051 10 99 0.0 0.0 0.00 0.00 0.00 1 1008.2
20260505213044 10 214 0.0 0.0 0.00 0.00 0.00 1 1008.4
20260505211548 10 175 0.0 0.0 0.00 0.00 0.00 1 1008.4
20260505210038 11 207 0.0 0.0 0.00 0.00 0.00 1 1008.5
20260505203049 11 195 0.0 0.0 0.00 0.00 0.00 1 1008.6
20260505201531 11 150 0.0 0.0 0.00 0.00 0.00 1 1008.5
20260505200028 12 196 0.0 0.0 0.00 0.00 0.00 1 1008.4
20260505193027 12 165 0.0 1.6 0.00 0.00 0.00 1 1008.1
20260505191524 12 198 0.0 0.0 0.00 0.03 0.00 1 1007.9
20260505190020 12 194 0.0 0.0 0.00 0.03 0.00 1 1007.7
20260505183013 13 165 0.0 0.0 0.00 0.03 0.00 6 1007.4
20260505181509 13 288 0.0 0.0 0.00 0.03 0.00 6 1007.3
20260505180004 13 238 0.0 0.0 0.00 0.03 0.00 11 1007.3
20260505174700 13 241 0.0 0.0 0.00 0.03 0.00 17 1007.3
20260505173059 14 232 0.0 1.6 0.00 0.03 0.00 21 1007.3
20260505171557 14 289 0.0 0.0 0.00 0.03 0.00 22 1007.4
20260505170050 14 78 0.0 0.0 0.00 0.03 0.00 28 1007.4
20260505164647 15 214 0.0 3.2 0.00 0.03 0.00 28 1007.6
20260505163041 15 303 0.0 0.0 0.00 0.03 0.00 32 1007.6
20260505161539 15 169 0.0 0.0 0.00 0.03 0.00 33 1007.6
20260505153027 17 262 0.0 0.0 0.00 0.03 0.00 47 1007.6
20260505151532 17 268 0.0 0.0 0.00 0.03 0.00 48 1007.7
20260505124545 17 208 0.0 0.0 0.00 0.03 0.00 52 1008.4
20260505123042 17 200 0.0 3.2 0.00 0.03 0.00 52 1008.4
20260505121546 17 132 0.0 0.0 0.00 0.03 0.00 51 1008.4
20260505120032 17 126 0.0 0.0 0.00 0.03 0.00 51 1008.4
20260505114529 17 164 0.0 0.0 0.00 0.03 0.00 48 1008.5
20260505113038 17 211 0.0 0.0 0.00 0.03 0.00 41 1008.6
20260505111537 16 163 0.0 0.0 0.00 0.03 0.00 42 1008.7
20260505101520 15 211 0.0 0.0 0.00 0.03 0.00 8 1009.3
20260505100003 14 200 0.0 0.0 0.00 0.03 0.00 1 1009.3
20260505094607 13 215 0.0 0.0 0.00 0.03 0.00 1 1009.4
20260505093057 13 167 0.0 0.0 0.00 0.03 0.00 1 1009.4
20260505091552 13 209 0.0 0.0 0.00 0.03 0.00 1 1009.4
20260505090119 12 198 0.0 0.0 0.00 0.03 0.00 1 1009.6
20260505084544 12 218 0.0 0.0 0.00 0.03 0.00 1 1009.6
20260505083050 12 213 0.0 0.0 0.00 0.03 0.00 1 1009.5
20260505081535 11 155 0.0 0.0 0.00 0.03 0.00 1 1009.5
20260505080034 11 200 0.0 0.0 0.00 0.03 0.00 1 1009.4
20260505074526 11 169 0.0 0.0 0.00 0.03 0.00 1 1009.5
20260505073025 11 51 0.0 0.0 0.00 0.03 0.00 1 1009.4
20260505071519 11 79 0.0 1.6 0.00 0.03 0.00 1 1009.4
20260505070022 11 65 0.0 0.0 0.00 0.03 0.00 1 1009.6
20260505064512 10 200 0.0 0.0 0.00 0.03 0.00 1 1009.9
20260505063008 10 205 0.0 0.0 0.00 0.03 0.00 1 1009.9
20260505061504 10 194 0.0 0.0 0.00 0.03 0.00 1 1009.8
20260505054557 10 162 0.0 0.0 0.00 0.03 0.00 1 1010.0
20260505053055 10 221 0.0 0.0 0.00 0.03 0.00 1 1010.0
20260505051551 10 259 0.0 0.0 0.00 0.03 0.00 1 1010.0